Akron, CO

9:49 PM MDT on August 27, 2016 (GMT -0600)
Akron-Washington County

Weather History for KAKO - November, 2010

Change the Weather History Date:

Tuesday, November 23, 2010

  Actual Average Record
Temperature  
Mean Temperature 34 °F 34 °F  
Max Temperature 48 °F 46 °F 66 °F (1988)
Min Temperature 21 °F 22 °F 0 °F (1941)
Degree Days  
Heating Degree Days 30    
Month to date heating degree days  
Cooling Degree Days 0    
Month to date cooling degree days  
Moisture  
Dew Point 13 °F    
Average Humidity 47    
Maximum Humidity 78    
Minimum Humidity 16    
Precipitation  
Precipitation 0.00 in 0.02 in 0.22 in (1992)
Month to date precipitation 0.46  
Year to date precipitation 16.22  
Sea Level Pressure  
Sea Level Pressure 29.80 in    
Wind  
Wind Speed 13 mph (SSE)    
Max Wind Speed 26 mph    
Max Gust Speed 41 mph    
Visibility 10 miles    
Events      
T = Trace of Precipitation, MM = Missing Value Source: NWS Daily Summary

Daily Weather History Graph

Daily Weather History Graph

Search for Another Location

Airport or City:

Trip Planner

Search our weather history database for the weather conditions in past years. The results will help you decide how hot, cold, wet, or windy it might be!

Date:

Astronomy

Nov. 23, 2010 Rise Set
Actual Time 6:47 AM MST 4:30 PM MST
Civil Twilight 6:17 AM MST 5:00 PM MST
Nautical Twilight 5:44 AM MST 5:33 PM MST
Astronomical Twilight 5:12 AM MST 6:06 PM MST
Moon 6:14 PM MST (11/23) 8:47 AM MST (11/23)
Length of Visible Light 10h 42m
Length of Day
9h 43m
Waning Gibbous, 95% of the Moon is Illuminated
Nov 23
Waning Gibbous
Nov 28
Last Quarter
Dec 5
New
Dec 13
First Quarter
Dec 21
Full

Hourly Weather History & Observations

Time (MST) Temp. Windchill Dew Point Humidity Pressure Visibility Wind Dir Wind Speed Gust Speed Precip Events Conditions
12:53 AM 21.9 °F 11.0 °F 12.9 °F 68% 30.02 in 10.0 mi SSW 10.4 mph - N/A   Clear
1:53 AM 24.1 °F 15.2 °F 10.0 °F 55% 30.01 in 10.0 mi South 8.1 mph - N/A   Clear
2:53 AM 23.0 °F 14.7 °F 10.0 °F 58% 29.99 in 10.0 mi SSE 6.9 mph - N/A   Clear
3:53 AM 26.1 °F 15.0 °F 12.9 °F 58% 29.99 in 10.0 mi South 12.7 mph - N/A   Clear
4:53 AM 26.1 °F 16.2 °F 14.0 °F 60% 30.01 in 10.0 mi South 10.4 mph - N/A   Clear
5:53 AM 27.0 °F 18.0 °F 14.0 °F 58% 30.02 in 10.0 mi SSE 9.2 mph - N/A   Clear
6:53 AM 26.1 °F 15.0 °F 10.0 °F 51% 29.99 in 10.0 mi South 12.7 mph - N/A   Clear
7:53 AM 24.1 °F 13.1 °F 10.9 °F 57% 30.01 in 10.0 mi SSE 11.5 mph - N/A   Clear
8:53 AM 33.1 °F 24.9 °F 14.0 °F 46% 29.97 in 10.0 mi South 10.4 mph - N/A   Clear
9:53 AM 37.0 °F 27.0 °F 12.9 °F 37% 29.94 in 10.0 mi South 18.4 mph - N/A   Clear
10:53 AM 46.0 °F 37.4 °F 7.0 °F 20% 29.88 in 10.0 mi South 25.3 mph 36.8 mph N/A   Clear
12:53 PM 48.9 °F - 5.0 °F 17% 29.77 in 10.0 mi South 26.5 mph 41.4 mph N/A   Clear
1:53 PM 48.9 °F - 5.0 °F 17% 29.73 in 10.0 mi SSE 21.9 mph 34.5 mph N/A   Clear
2:53 PM 48.0 °F - 3.9 °F 16% 29.70 in 10.0 mi South 19.6 mph 34.5 mph N/A   Clear
3:53 PM 45.0 °F 37.4 °F 8.1 °F 22% 29.69 in 10.0 mi SSE 18.4 mph 25.3 mph N/A   Clear
4:53 PM 39.0 °F 29.9 °F 10.0 °F 30% 29.68 in 10.0 mi SE 17.3 mph - N/A   Clear
5:53 PM 35.1 °F 25.2 °F 19.0 °F 52% 29.69 in 10.0 mi SE 16.1 mph - N/A   Clear
6:53 PM 33.1 °F 23.9 °F 21.9 °F 64% 29.67 in 10.0 mi SE 12.7 mph - N/A   Clear
7:53 PM 32.0 °F 21.2 °F 24.1 °F 73% 29.65 in 10.0 mi SSE 16.1 mph - N/A   Clear
8:53 PM 28.9 °F 18.6 °F 23.0 °F 78% 29.60 in 10.0 mi SSE 12.7 mph - N/A   Clear
9:53 PM 28.0 °F 18.6 °F 21.9 °F 78% 29.56 in 10.0 mi SSE 10.4 mph - N/A   Clear
10:53 PM 37.9 °F 29.6 °F 14.0 °F 38% 29.47 in 10.0 mi South 13.8 mph 19.6 mph N/A   Clear
11:53 PM 41.0 °F 31.9 °F 10.9 °F 29% 29.43 in 10.0 mi SSW 19.6 mph 27.6 mph N/A   Clear